Scottsbluff, NE

1:23 PM MDT on July 28, 2017 (GMT -0600)
Heilig

Weather History for KBFF - June, 2013

Change the Weather History Date:

Thursday, June 27, 2013

  Actual Average Record
Temperature  
Mean Temperature 78 °F 71 °F  
Max Temperature 94 °F 87 °F 106 °F (1990)
Min Temperature 62 °F 55 °F 38 °F (1985)
Degree Days  
Heating Degree Days 0 1  
Month to date heating degree days 21 57  
Since 1 June heating degree days 21 57  
Since 1 July heating degree days 6306 6612  
Cooling Degree Days 13 7  
Month to date cooling degree days 164 105  
Year to date cooling degree days 218 128  
Since 1 June cooling degree days 164 105  
Growing Degree Days 30 (Base 50)    
Moisture  
Dew Point 53 °F    
Average Humidity 51    
Maximum Humidity 78    
Minimum Humidity 23    
Precipitation  
Precipitation 0.00 in 0.07 in 1.60 in (1991)
Month to date precipitation 1.54 2.64  
Year to date precipitation 6.18 8.96  
Snow  
Snow 0.00 in 0.00 in - ()
Month to date snowfall 0.0 0.0  
Since 1 July snowfall 43.9 42.1  
Snow Depth 0.00 in    
Sea Level Pressure  
Sea Level Pressure 30.00 in    
Wind  
Wind Speed 6 mph (NE)    
Max Wind Speed 17 mph    
Max Gust Speed 23 mph    
Visibility 10 miles    
Events      
T = Trace of Precipitation, MM = Missing Value Source: NWS Daily Summary

Daily Weather History Graph

Daily Weather History Graph

Search for Another Location

Airport or City:

Trip Planner

Search our weather history database for the weather conditions in past years. The results will help you decide how hot, cold, wet, or windy it might be!

Date:

Astronomy

Jun. 27, 2013 Rise Set
Actual Time 5:21 AM MDT 8:33 PM MDT
Civil Twilight 4:47 AM MDT 9:07 PM MDT
Nautical Twilight 4:02 AM MDT 9:51 PM MDT
Astronomical Twilight 3:09 AM MDT 10:44 PM MDT
Moon 11:26 PM MDT (6/27) 10:29 AM MDT (6/27)
Length of Visible Light 16h 20m
Length of Day
15h 12m
Waning Gibbous, 76% of the Moon is Illuminated
Jun 27
Waning Gibbous
Jun 29
Last Quarter
Jul 8
New
Jul 15
First Quarter
Jul 22
Full

Hourly Weather History & Observations

Time (MDT) Temp. Heat Index Dew Point Humidity Pressure Visibility Wind Dir Wind Speed Gust Speed Precip Events Conditions
12:53 AM 72.0 °F - 54.0 °F 53% 29.85 in 10.0 mi North 11.5 mph - N/A   Clear
1:53 AM 68.0 °F - 57.0 °F 68% 29.85 in 10.0 mi NNE 11.5 mph - N/A   Clear
2:53 AM 66.0 °F - 57.0 °F 73% 29.88 in 10.0 mi ENE 6.9 mph - N/A   Clear
3:53 AM 64.9 °F - 57.0 °F 75% 29.91 in 10.0 mi North 6.9 mph - 0.00 in   Clear
4:53 AM 64.0 °F - 55.9 °F 75% 29.94 in 10.0 mi NNW 5.8 mph - N/A   Clear
5:53 AM 66.0 °F - 55.0 °F 68% 29.97 in 10.0 mi North 5.8 mph - N/A   Clear
6:53 AM 70.0 °F - 55.0 °F 59% 30.01 in 10.0 mi North 4.6 mph - N/A   Clear
7:53 AM 73.9 °F - 55.9 °F 53% 30.04 in 10.0 mi NNE 8.1 mph - N/A   Clear
8:53 AM 78.1 °F - 53.1 °F 42% 30.05 in 10.0 mi NE 6.9 mph - N/A   Clear
9:53 AM 80.1 °F - 50.0 °F 35% 30.06 in 10.0 mi ESE 5.8 mph - N/A   Clear
10:53 AM 81.0 °F - 48.0 °F 31% 30.07 in 10.0 mi Calm Calm - N/A   Clear
11:53 AM 84.9 °F - 48.9 °F 29% 30.06 in 10.0 mi Calm Calm - N/A   Clear
12:53 PM 88.0 °F - 51.1 °F 28% 30.04 in 10.0 mi Calm Calm - N/A   Clear
1:53 PM 90.0 °F - 48.9 °F 24% 30.03 in 10.0 mi Calm Calm - N/A   Clear
2:53 PM 91.0 °F - 48.9 °F 23% 30.01 in 10.0 mi Variable 3.5 mph - N/A   Clear
3:53 PM 93.9 °F - 50.0 °F 22% 29.99 in 10.0 mi Variable 3.5 mph - N/A   Clear
4:53 PM 93.0 °F - 50.0 °F 23% 29.98 in 10.0 mi ESE 8.1 mph - N/A   Clear
5:53 PM 91.9 °F - 51.1 °F 25% 29.97 in 10.0 mi SE 5.8 mph - N/A   Clear
6:53 PM 90.0 °F - 52.0 °F 27% 29.96 in 10.0 mi SE 10.4 mph - N/A   Clear
7:53 PM 86.0 °F 84.2 °F 54.0 °F 33% 29.96 in 10.0 mi ESE 5.8 mph - N/A   Clear
8:53 PM 80.1 °F 80.1 °F 55.0 °F 42% 29.99 in 10.0 mi ENE 8.1 mph - N/A   Clear
9:53 PM 77.0 °F - 55.0 °F 47% 30.02 in 10.0 mi ENE 8.1 mph - N/A   Clear
10:53 PM 71.1 °F - 55.9 °F 59% 30.06 in 10.0 mi ENE 6.9 mph - N/A   Clear
11:53 PM 73.9 °F - 55.9 °F 53% 30.09 in 10.0 mi ENE 12.7 mph - N/A   Clear